Find Starlink 31636

NORAD ID: 59747 Int'l Des: 2024-090 Owner: SPXS Country: US Constellation: starlink operational
LEOCIRCULAR

当前视图

正在加载3D地球...

About Starlink 31636

Starlink 31636 (NORAD 59747) is a starlink constellation satellite (v2 mini) launched May 13, 2024 by SPXS of US. It operates in LEO, CIRCULAR orbit with a mass of 730.00 kg.

关于 Starlink 31636

正在加载描述...

即将过境

Passes for default location (London). Set your location on the main map for personalized predictions.

高度历史

Loading altitude history...

两行轨道根数

1 59747U 24090T 26171.42163311 .00004900 00000-0 18760-3 0 9993
2 59747 42.9999 323.1458 0000731 161.1912 198.8966 15.27551949119156
Epoch: Jun 20, 2026 • Age: 23 hours

当前状态

高度 483.3 km
速度 7.63 km/s
星下点 30.36°N, 59.63°E
发射日期 May 13, 2024
运行时间 2.1 years
类型 internet

技术详情

分类 Payload
质量 730.00 kg
干质量 700.00 kg
总质量 730.00 kg
长度 0.30 m
直径 4.10 m
跨度 29.00 m
形状 Box + pan
制造商 SPXS
平台类型 Starlink V2M
阶段状态 In Orbit
所有者/国家 SPXS/US

Most Searched